Location: Mansfield Dam
(30.3944°N, 97.9097°W)
Time: 19:34:36
(UTC-05:00)

Daily predictions for brighter satellites

Satellite Brightness Start Highest point End
(mag) Time Altitude Azimuth Time Altitude Azimuth Time Altitude Azimuth
H-2A R/B 2.5 20:41:32 10° WSW 20:44:20 67° S 20:55:31 10° E
Cosmos 2074 Rocket 4.1 20:42:41 10° S 20:48:53 66° E 20:55:05 10° NNE
Cosmos 2084 3.6 20:48:02 10° SW 20:51:55 70° WNW 20:55:45 10° NNE
Cosmos 1892 2.9 20:52:07 10° S 20:55:56 78° W 20:59:48 10° N
Cosmos 1606 4.5 20:54:07 10° NE 20:56:37 16° ENE 20:59:06 10° ESE
Resurs 01 Rocket 2.9 20:57:57 10° S 21:02:07 42° W 21:06:18 10° NNW
USA 186 2.3 20:59:39 10° SSE 21:02:36 39° ENE 21:05:42 10° N
ALOS 2.3 20:58:57 10° SSE 21:03:34 64° ENE 21:08:12 10° N
Cosmos 1862 4.3 21:01:04 10° SSE 21:04:32 28° E 21:08:01 10° NNE
Sich 1 Rocket 3.9 21:00:26 10° SSE 21:04:50 49° E 21:09:14 10° NNE
Coronas F rocket 3.2 21:04:25 10° SSW 21:06:50 33° W 21:09:16 10° NNW
OAO 3 Rocket 3.3 21:03:54 10° WSW 21:08:53 86° NNW 21:13:52 10° ENE
Lacrosse 5 rocket 2.9 21:07:00 10° SSE 21:09:07 14° ESE 21:11:11 10° E
GPS 2-05 Rocket1 4.4 21:05:49 10° WNW 21:09:18 36° N 21:12:44 10° ENE
ATLAS 2A CENTAUR R/B 1.6 21:06:23 10° WSW 21:11:25 36° S 21:12:53 16° ESE
Cosmos 1408 3.6 21:09:04 10° SSE 21:12:10 26° E 21:15:16 10° NNE
CZ-4B DEB 4.5 21:10:42 10° SSE 21:14:17 78° ENE 21:17:53 10° N
H-2A R/B 2.6 21:10:50 10° SSE 21:14:30 72° ENE 21:18:13 10° N
CZ-4B DEB 4.1 21:11:38 10° S 21:14:44 42° W 21:17:52 10° NNW
Centaur AC-119 2.0 21:12:22 10° WSW 21:15:32 36° S 21:16:36 20° SE
ATLAS 5 CENTAUR R/B 2.8 21:10:00 10° NW 21:16:09 68° WSW 21:22:37 10° SSE
Cosmos 1733 Rocket 3.7 21:13:42 10° SSW 21:18:01 58° W 21:22:21 10° N
Cosmos 1908 Rocket 3.7 21:14:43 10° S 21:19:00 54° E 21:23:20 10° NNE
Meteor 1-27 Rocket 4.1 21:17:00 10° N 21:22:13 42° E 21:26:44 13° SSE
Cosmos 1378 Rocket 4.5 21:19:02 10° NNE 21:22:48 29° E 21:25:11 18° SE
USA 215 4.0 21:18:37 10° SSE 21:24:52 47° SW 21:31:08 10° NW
SL-27 R/B 2.9 21:22:27 10° NNW 21:26:01 64° WSW 21:29:29 10° S
Cosmos 1782 2.8 21:29:14 10° N 21:33:17 85° W 21:37:19 10° S
Cosmos 1825 2.1 21:31:59 10° S 21:35:43 63° E 21:39:30 10° NNE
Envisat 3.7 21:35:07 21° ESE 21:37:50 35° ENE 21:42:25 10° N
SEDSat Delta rocket 2.9 21:33:47 10° WSW 21:38:26 84° S 21:41:22 19° E
Cosmos 2341 Rocket 4.0 21:32:38 10° S 21:38:50 61° E 21:45:00 10° NNE
Meteosat 1 Rocket2 3.9 21:35:28 10° W 21:40:24 67° S 21:45:16 21° ESE
FENGYUN 3A 4.4 21:36:54 10° S 21:42:08 53° W 21:47:24 10° NNW
Cosmos 962 Rocket 4.4 21:37:20 10° S 21:43:24 66° E 21:49:33 10° NNE
deb Chang Zheng 4 3.6 21:40:24 10° NNE 21:44:47 59° ESE 21:49:04 11° S
Cosmos 2278 Rocket 2.9 21:40:27 10° SSW 21:46:00 58° WNW 21:51:36 10° N
ERS-1 Rocket 2.9 21:43:05 19° SSE 21:46:39 68° ENE 21:51:39 10° N
H-2A R/B 2.7 21:46:49 29° ESE 21:48:11 38° ENE 21:52:06 10° N
Cosmos 1420 Rocket 4.0 21:45:04 10° SSW 21:50:20 87° WNW 21:55:34 10° NNE
Atlas Centaur 2 1.5 21:48:01 10° W 21:51:33 43° SSW 21:52:19 37° SSE
Intelsat 3F5 C 4.1 21:48:32 10° W 21:51:55 70° S 21:52:26 56° SE
Cosmos 1939 Rocket 2.9 21:50:57 36° SE 21:52:14 55° ENE 21:56:05 10° N
Abrixas 4.4 21:50:45 10° WSW 21:53:30 32° NW 21:56:17 10° NNE
APEX 3.7 21:52:21 10° SSW 21:55:55 66° WNW 22:00:35 10° NNE
Okean 3 3.5 21:53:17 10° N 21:57:30 60° E 21:58:47 40° SE
YAOGAN 11 4.4 21:54:32 18° S 21:57:51 70° WSW 22:02:25 10° NNW
Cosmos 1140 Rocket 3.7 21:53:59 10° N 21:58:59 50° ENE 22:00:43 35° ESE
COSMOS 2487 2.4 21:55:48 10° N 21:59:24 73° ENE 22:00:03 55° SE
Cosmos 2154 Rocket 4.4 21:54:26 10° SSW 22:00:36 65° W 22:06:45 10° N
Cosmos 407 Rocket 4.3 21:56:27 10° NNW 22:01:32 49° WSW 22:05:59 14° S
Timation 2 Rocket 4.2 21:56:12 10° N 22:01:56 46° ENE 22:04:05 33° ESE
SPOT 5 3.5 22:02:46 35° ESE 22:04:27 47° ENE 22:09:34 10° N
Cosmos 1238 Rocket 2.7 22:00:51 10° N 22:04:34 84° E 22:06:08 38° S
CZ-4B R/B 4.1 22:04:33 10° NE 22:08:19 32° E 22:08:19 32° E
Cosmos 1184 Rocket 4.2 22:06:13 11° SSW 22:09:13 38° W 22:12:22 10° N
Cosmos 489 Rocket 4.4 22:03:33 10° N 22:09:45 71° ENE 22:12:25 36° SSE
Cosmos 2082 Rocket 3.0 22:06:47 10° N 22:11:51 32° ENE 22:12:49 30° E
Lacrosse 5 1.9 22:09:58 10° SSW 22:14:54 52° ESE 22:19:51 10° NE
H-2A R/B 4.0 22:20:50 15° ENE 22:20:50 15° ENE 22:23:28 10° NNE
Cosmos 2366 rocket 4.0 22:22:11 42° SSE 22:24:04 59° E 22:30:17 10° NNE
Cosmos 2297 4.4 22:19:14 10° SW 22:24:46 55° WNW 22:30:24 10° N
MetOp-B 4.1 22:25:01 53° ESE 22:25:57 63° ENE 22:31:14 10° N
Okean 2 Rocket 4.0 22:24:27 16° SSW 22:27:42 45° W 22:31:56 10° N
UNK 4.2 22:21:39 10° NNE 22:27:44 79° ESE 22:30:20 35° S
Meteor 1-14 Rocket 4.1 22:26:18 29° S 22:29:18 87° W 22:34:55 10° N
SPOT 1/Viking Rocket 3.8 22:35:56 51° ENE 22:35:56 51° ENE 22:40:57 10° N
Intercosmos 25 4.2 22:37:34 40° W 22:37:47 41° W 22:40:50 10° NNW
Cosmos 1242 Rocket 3.4 22:35:51 10° NNW 22:38:59 49° WNW 22:38:59 49° WNW
Mugunghwa Rocket 4.4 22:32:45 10° WSW 22:41:07 64° S 22:43:03 50° ESE
YAOGAN 6 4.1 22:45:16 33° NNW 22:45:16 33° NNW 22:47:18 10° NNW
Lacrosse 5 rocket 2.4 22:44:15 10° WSW 22:48:03 41° NW 22:51:42 10° NNE
Cosmos 1850 Rocket 4.1 22:43:56 10° NNW 22:49:14 69° WSW 22:49:45 64° SW
Meteor 2-19 Rocket 4.3 22:49:33 70° ESE 22:49:54 72° E 22:55:59 10° N
ARGOS 3.2 22:50:37 62° NE 22:50:37 62° NE 22:55:35 10° N
Cosmos 2369 Rocket 4.4 22:55:52 12° NE 22:55:52 12° NE 22:56:27 10° NE
Cosmos 1975 Rocket 4.5 22:48:43 10° NNW 22:52:35 32° W 22:53:20 30° WSW
OAO 3 Rocket 3.9 22:47:55 10° W 22:52:44 49° N 22:53:20 47° NNE
USA 229 DEB 3.8 22:46:22 10° NNW 22:53:26 62° ENE 22:54:27 56° E
USA 229 3.8 22:46:29 10° NNW 22:53:32 61° ENE 22:54:33 56° E
Cosmos 2218 Rocket 4.4 22:52:54 31° SSW 22:55:59 63° W 23:02:20 10° N
CZ-4 R/B 4.4 22:55:54 10° NNE 22:59:17 49° N 22:59:17 49° N
Meteor 2-8 Rocket 4.3 23:00:43 10° N 23:06:48 84° ENE 23:06:48 84° ENE
Cosmos 1331 Rocket 4.3 23:07:15 63° WNW 23:07:15 63° WNW 23:12:09 10° N
Cosmos 1727 Rocket 3.9 23:09:06 10° N 23:15:12 81° WNW 23:15:12 81° WNW
Terra 3.5 23:23:26 28° NNE 23:23:26 28° NNE 23:25:48 10° N
Cosmos 1833 Rocket 3.2 23:22:15 10° NNW 23:26:48 54° WNW 23:26:48 54° WNW
NOSS 3-1 (C) 4.4 23:32:49 10° NNW 23:40:21 51° ENE 23:40:23 51° ENE
USA 234 3.8 23:40:50 10° NE 23:45:23 49° NNE 23:45:23 49° NNE
